{"data":{"norad_id":58321,"epoch":"2026-09-21T22:42:43.107264Z","epoch_age_seconds":116941,"freshness":"FRESH","line1":"1 58321U 23174BT  26264.94633226  .00004761  00000+0  15373-3 0  9990","line2":"2 58321  97.3705 342.9274 0007861 169.4809 190.6599 15.32576963159788","mean_motion":15.32576963,"eccentricity":0.0007861,"inclination_deg":97.3705,"raan_deg":342.9274,"arg_perigee_deg":169.4809,"mean_anomaly_deg":190.6599,"bstar":0.00015373,"rev_number":15978,"period_min":93.959392237061,"perigee_km":462.74521261777,"apogee_km":473.50890897415,"semimajor_km":6846.264060796,"source":"CELESTRAK","updated_at":"2026-09-22T09:00:26.581638Z"}}